Abbeville, LA

1:30 PM CST on December 08, 2016 (GMT -0600)
Abbeville

Weather History for KIYA - October, 2012

Change the Weather History Date:

Monday, October 8, 2012

  Actual Average (K7R4) Record (K7R4)
Temperature  
Mean Temperature 62 °F -  
Max Temperature 70 °F 76 °F 84 °F (2003)
Min Temperature 53 °F 66 °F 50 °F (2000)
Degree Days  
Heating Degree Days 4    
Growing Degree Days 12 (Base 50)    
Moisture  
Dew Point 53 °F    
Average Humidity 77    
Maximum Humidity 100    
Minimum Humidity 52    
Precipitation  
Precipitation 0.00 in - - ()
Sea Level Pressure  
Sea Level Pressure 30.13 in    
Wind  
Wind Speed 6 mph ()    
Max Wind Speed 13 mph    
Max Gust Speed 21 mph    
Visibility 10.0 miles    
Events      
Averages and records for this station are not official NWS values.
T = Trace of Precipitation, MM = Missing Value Source: Averaged Metar Reports

Daily Weather History Graph

Daily Weather History Graph

Search for Another Location

Airport or City:

Trip Planner

Search our weather history database for the weather conditions in past years. The results will help you decide how hot, cold, wet, or windy it might be!

Date:

Astronomy

Oct. 08, 2012 Rise Set
Actual Time 7:06 AM CDT 6:44 PM CDT
Civil Twilight 6:42 AM CDT 7:08 PM CDT
Nautical Twilight 6:14 AM CDT 7:36 PM CDT
Astronomical Twilight 5:46 AM CDT 8:04 PM CDT
Moon 12:14 AM CDT 2:08 PM CDT
Length of Visible Light 12h 26m
Length of Day
11h 38m
Last Quarter, 46% of the Moon is Illuminated
Oct 8
Last Quarter
Oct 15
New
Oct 21
First Quarter
Oct 29
Full
Nov 6
Last Quarter

Hourly Weather History & Observations

Time (CDT) Temp. Dew Point Humidity Pressure Visibility Wind Dir Wind Speed Gust Speed Precip Events Conditions
12:15 AM 55.4 °F 53.6 °F 94% 30.13 in 10.0 mi North 4.6 mph - N/A   Clear
12:35 AM 55.4 °F 53.6 °F 94% 30.13 in 10.0 mi North 3.5 mph - N/A   Mostly Cloudy
12:55 AM 55.6 °F 54.0 °F 94% 30.13 in 10.0 mi Calm Calm - N/A   Mostly Cloudy
1:15 AM 55.8 °F 54.1 °F 94% 30.12 in 10.0 mi Calm Calm - N/A   Mostly Cloudy
1:35 AM 55.9 °F 54.0 °F 93% 30.13 in 10.0 mi Calm Calm - N/A   Mostly Cloudy
1:55 AM 54.9 °F 53.2 °F 94% 30.13 in 10.0 mi NNW 5.8 mph - N/A   Scattered Clouds
2:15 AM 54.1 °F 53.1 °F 96% 30.13 in 10.0 mi NW 3.5 mph - N/A   Clear
2:35 AM 54.1 °F 53.1 °F 96% 30.13 in 10.0 mi NW 3.5 mph - N/A   Clear
2:55 AM 53.8 °F 52.9 °F 97% 30.13 in 10.0 mi NW 4.6 mph - N/A   Clear
3:15 AM 54.3 °F 53.6 °F 97% 30.12 in 10.0 mi NNW 5.8 mph - N/A   Clear
3:35 AM 54.0 °F 53.6 °F 99% 30.11 in 10.0 mi NNW 5.8 mph - N/A   Clear
3:55 AM 53.6 °F 53.2 °F 99% 30.11 in 10.0 mi North 3.5 mph - N/A   Clear
4:15 AM 53.4 °F 53.1 °F 99% 30.11 in 10.0 mi North 4.6 mph - N/A   Clear
4:35 AM 53.6 °F 53.6 °F 100% 30.11 in 10.0 mi North 3.5 mph - N/A   Mostly Cloudy
4:55 AM 54.5 °F 53.8 °F 97% 30.12 in 10.0 mi NNW 6.9 mph - N/A   Overcast
5:15 AM 54.5 °F 53.2 °F 96% 30.13 in 10.0 mi North 8.1 mph - N/A   Mostly Cloudy
5:35 AM 53.8 °F 52.7 °F 96% 30.13 in 10.0 mi North 6.9 mph - N/A   Scattered Clouds
5:55 AM 53.6 °F 52.2 °F 95% 30.14 in 10.0 mi North 6.9 mph - N/A   Clear
6:15 AM 54.0 °F 52.0 °F 93% 30.14 in 10.0 mi North 9.2 mph - N/A   Scattered Clouds
6:35 AM 55.4 °F 51.8 °F 88% 30.14 in 10.0 mi North 8.1 mph - N/A   Overcast
6:55 AM 55.6 °F 51.6 °F 87% 30.15 in 10.0 mi North 10.4 mph - N/A   Overcast
7:15 AM 55.9 °F 51.4 °F 85% 30.16 in 10.0 mi North 9.2 mph - N/A   Overcast
7:35 AM 56.5 °F 49.8 °F 78% 30.15 in 10.0 mi NE 5.8 mph - N/A   Overcast
7:55 AM 56.7 °F 49.6 °F 77% 30.16 in 10.0 mi North 9.2 mph - N/A   Overcast
8:15 AM 57.2 °F 50.0 °F 77% 30.17 in 10.0 mi NNE 6.9 mph - N/A   Overcast
8:35 AM 57.4 °F 49.3 °F 74% 30.18 in 10.0 mi NNE 10.4 mph - N/A   Overcast
8:55 AM 58.8 °F 49.5 °F 71% 30.18 in 10.0 mi North 12.7 mph - N/A   Scattered Clouds
9:15 AM 59.9 °F 49.6 °F 69% 30.19 in 10.0 mi North 9.2 mph 18.4 mph N/A   Clear
9:35 AM 61.2 °F 50.7 °F 69% 30.19 in 10.0 mi North 11.5 mph - N/A   Scattered Clouds
9:55 AM 62.4 °F 51.1 °F 66% 30.20 in 10.0 mi North 11.5 mph - N/A   Mostly Cloudy
10:15 AM 61.7 °F 50.9 °F 68% 30.19 in 10.0 mi North 8.1 mph - N/A   Overcast
10:35 AM 62.1 °F 50.5 °F 66% 30.19 in 10.0 mi NNE 11.5 mph - N/A   Overcast
10:55 AM 62.8 °F 51.8 °F 67% 30.19 in 10.0 mi North 11.5 mph - N/A   Overcast
11:15 AM 63.5 °F 51.6 °F 65% 30.19 in 10.0 mi North 8.1 mph - N/A   Overcast
11:35 AM 63.7 °F 51.6 °F 65% 30.18 in 10.0 mi NNE 10.4 mph - N/A   Overcast
11:55 AM 64.8 °F 52.7 °F 65% 30.17 in 10.0 mi North 10.4 mph - N/A   Overcast
12:15 PM 65.5 °F 52.7 °F 63% 30.17 in 10.0 mi North 9.2 mph - N/A   Mostly Cloudy
12:35 PM 66.7 °F 54.0 °F 63% 30.17 in 10.0 mi North 5.8 mph - N/A   Mostly Cloudy
12:55 PM 66.7 °F 53.6 °F 63% 30.16 in 10.0 mi North 12.7 mph 16.1 mph N/A   Mostly Cloudy
1:15 PM 66.6 °F 53.6 °F 63% 30.15 in 10.0 mi North 10.4 mph - N/A   Mostly Cloudy
1:35 PM 69.1 °F 53.6 °F 58% 30.13 in 10.0 mi North 10.4 mph 17.3 mph N/A   Scattered Clouds
1:55 PM 69.6 °F 53.4 °F 56% 30.12 in 10.0 mi NNW 12.7 mph 17.3 mph N/A   Clear
2:15 PM 70.2 °F 53.4 °F 55% 30.11 in 10.0 mi North 11.5 mph 18.4 mph N/A   Clear
2:35 PM 70.3 °F 53.2 °F 55% 30.11 in 10.0 mi North 12.7 mph 20.7 mph N/A   Clear
3:15 PM 70.7 °F 52.7 °F 53% 30.11 in 10.0 mi North 10.4 mph - N/A   Clear
3:35 PM 70.9 °F 52.3 °F 52% 30.10 in 10.0 mi North 12.7 mph 16.1 mph N/A   Clear
3:55 PM 70.9 °F 52.3 °F 52% 30.10 in 10.0 mi NNE 9.2 mph - N/A   Clear
4:15 PM 70.7 °F 52.2 °F 52% 30.09 in 10.0 mi North 9.2 mph - N/A   Clear
4:35 PM 70.3 °F 52.7 °F 53% 30.09 in 10.0 mi NNE 8.1 mph - N/A   Clear
4:55 PM 70.2 °F 52.9 °F 54% 30.09 in 10.0 mi NNE 6.9 mph - N/A   Clear
5:15 PM 70.0 °F 53.2 °F 55% 30.09 in 10.0 mi NE 9.2 mph - N/A   Clear
5:35 PM 69.8 °F 53.8 °F 57% 30.09 in 10.0 mi NNE 6.9 mph - N/A   Clear
5:55 PM 68.9 °F 53.4 °F 58% 30.09 in 10.0 mi NNE 5.8 mph - N/A   Clear
6:15 PM 67.8 °F 53.4 °F 60% 30.10 in 10.0 mi NNE 5.8 mph - N/A   Clear
6:35 PM 66.0 °F 53.8 °F 65% 30.11 in 10.0 mi NE 4.6 mph - N/A   Clear
6:55 PM 64.0 °F 54.1 °F 70% 30.11 in 10.0 mi NNE 4.6 mph - N/A   Clear
7:35 PM 62.1 °F 54.5 °F 76% 30.11 in 10.0 mi NNE 4.6 mph - N/A   Clear
7:55 PM 61.3 °F 54.5 °F 78% 30.11 in 10.0 mi Calm Calm - N/A   Clear
8:15 PM 61.0 °F 54.7 °F 80% 30.11 in 10.0 mi NNE 3.5 mph - N/A   Clear
9:15 PM 59.4 °F 54.9 °F 85% 30.13 in 10.0 mi Calm Calm - N/A   Clear
9:35 PM 59.0 °F 54.3 °F 84% 30.13 in 10.0 mi NNE 3.5 mph - N/A   Clear
9:55 PM 58.1 °F 54.5 °F 88% 30.13 in 10.0 mi North 3.5 mph - N/A   Clear
10:15 PM 57.4 °F 54.0 °F 88% 30.13 in 10.0 mi Calm Calm - N/A   Clear
10:35 PM 57.7 °F 54.0 °F 87% 30.14 in 10.0 mi North 3.5 mph - N/A   Clear
10:55 PM 57.7 °F 54.0 °F 87% 30.13 in 10.0 mi North 3.5 mph - N/A   Clear
11:15 PM 57.2 °F 53.8 °F 88% 30.13 in 10.0 mi North 3.5 mph - N/A   Clear
11:35 PM 56.8 °F 53.4 °F 88% 30.13 in 10.0 mi NNE 3.5 mph - N/A   Clear
11:55 PM 56.3 °F 53.6 °F 91% 30.13 in 10.0 mi NNE 3.5 mph - N/A   Clear